Imperial, NE

1:15 PM MST on February 19, 2017 (GMT -0700)
Imperial Municipal

Weather History for KIML - January, 2014

Change the Weather History Date:

Monday, January 6, 2014

  Actual Average Record
Temperature  
Mean Temperature 8 °F 28 °F  
Max Temperature 25 °F 41 °F 65 °F (1965)
Min Temperature -10 °F 15 °F -28 °F (1912)
Degree Days  
Heating Degree Days 57 37  
Month to date heating degree days 257 222  
Cooling Degree Days 0 0  
Month to date cooling degree days 0 0  
Year to date cooling degree days 0 0  
Moisture  
Dew Point -3 °F    
Average Humidity 58    
Maximum Humidity 79    
Minimum Humidity 36    
Precipitation  
Precipitation 0.00 in 0.00 in 0.22 in (1967)
Sea Level Pressure  
Sea Level Pressure 30.46 in    
Wind  
Wind Speed 7 mph (West)    
Max Wind Speed 16 mph    
Max Gust Speed 20 mph    
Visibility 10 miles    
Events      
T = Trace of Precipitation, MM = Missing Value Source: NWS Daily Summary

Daily Weather History Graph

Daily Weather History Graph

Search for Another Location

Airport or City:

Trip Planner

Search our weather history database for the weather conditions in past years. The results will help you decide how hot, cold, wet, or windy it might be!

Date:

Astronomy

Jan. 06, 2014 Rise Set
Actual Time 7:10 AM MST 4:35 PM MST
Civil Twilight 6:39 AM MST 5:05 PM MST
Nautical Twilight 6:05 AM MST 5:39 PM MST
Astronomical Twilight 5:32 AM MST 6:12 PM MST
Moon 10:25 AM MST (1/6) 11:12 PM MST (1/6)
Length of Visible Light 10h 26m
Length of Day
9h 25m
Waxing Crescent, 35% of the Moon is Illuminated
Jan 6
Waxing Crescent
Jan 7
First Quarter
Jan 15
Full
Jan 23
Last Quarter
Jan 30
New

Hourly Weather History & Observations

Time (MST) Temp. Windchill Dew Point Humidity Pressure Visibility Wind Dir Wind Speed Gust Speed Precip Events Conditions
12:53 AM -6.0 °F -18.6 °F -16.1 °F 62% 30.59 in 10.0 mi WSW 5.8 mph - N/A   Clear
1:53 AM -6.0 °F -21.5 °F -15.0 °F 65% 30.58 in 10.0 mi West 8.1 mph - N/A   Clear
2:53 AM -6.0 °F -20.1 °F -15.0 °F 65% 30.59 in 10.0 mi West 6.9 mph - N/A   Clear
3:53 AM -7.1 °F -21.4 °F -16.1 °F 65% 30.58 in 10.0 mi WNW 6.9 mph - N/A   Clear
4:53 AM -4.0 °F -22.1 °F -14.1 °F 62% 30.56 in 10.0 mi West 11.5 mph - N/A   Clear
5:53 AM -9.0 °F -20.4 °F -15.0 °F 75% 30.59 in 10.0 mi WSW 4.6 mph - N/A   Clear
6:53 AM -9.0 °F -25.2 °F -16.1 °F 71% 30.59 in 10.0 mi West 8.1 mph - N/A   Clear
7:53 AM -4.0 °F -14.6 °F -11.9 °F 69% 30.60 in 10.0 mi West 4.6 mph - N/A   Clear
8:53 AM -0.9 °F -8.9 °F -9.9 °F 66% 30.62 in 10.0 mi North 3.5 mph - N/A   Clear
9:53 AM 8.1 °F -0.5 °F -4.0 °F 58% 30.59 in 10.0 mi NNW 4.6 mph - N/A   Clear
10:53 AM 12.0 °F 0.5 °F -2.9 °F 51% 30.55 in 10.0 mi NNW 8.1 mph - N/A   Clear
11:53 AM 15.1 °F 6.4 °F -2.9 °F 45% 30.49 in 10.0 mi NNW 5.8 mph - N/A   Clear
12:53 PM 19.0 °F 11.1 °F -0.0 °F 43% 30.45 in 10.0 mi WNW 5.8 mph - N/A   Clear
1:53 PM 21.9 °F 13.4 °F 1.0 °F 40% 30.43 in 10.0 mi NW 6.9 mph - N/A   Clear
2:53 PM 24.1 °F 15.2 °F 1.9 °F 38% 30.40 in 10.0 mi West 8.1 mph - N/A   Clear
3:53 PM 24.1 °F - 3.0 °F 40% 30.39 in 10.0 mi Calm Calm - N/A   Clear
4:53 PM 18.0 °F 11.1 °F 3.9 °F 54% 30.38 in 10.0 mi South 4.6 mph - N/A   Scattered Clouds
5:53 PM 21.0 °F - 9.0 °F 60% 30.37 in 10.0 mi Calm Calm - N/A   Overcast
6:53 PM 19.9 °F 10.1 °F 8.1 °F 60% 30.35 in 10.0 mi SW 8.1 mph - N/A   Mostly Cloudy
7:53 PM 18.0 °F 7.7 °F 9.0 °F 68% 30.32 in 10.0 mi WSW 8.1 mph - N/A   Mostly Cloudy
8:53 PM 19.0 °F 9.0 °F 9.0 °F 65% 30.29 in 10.0 mi SW 8.1 mph - N/A   Scattered Clouds
9:53 PM 19.0 °F 5.6 °F 9.0 °F 65% 30.24 in 10.0 mi WSW 13.8 mph - N/A   Clear
10:53 PM 18.0 °F 6.1 °F 8.1 °F 65% 30.22 in 10.0 mi WSW 10.4 mph - N/A   Clear
11:53 PM 17.1 °F 4.3 °F 7.0 °F 65% 30.19 in 10.0 mi WSW 11.5 mph - N/A   Clear